Вернуться в каталог

CZ-4B DEB

АктивенSSO
NORAD 25733·DEBRIS·🇨🇳 China

Запущен May 10, 1999 с Taiyuan Satellite Launch Center

Loading…

Ближайшие Пролёты (ближайшие 24 часа)

TLE

СвежийSource: Space-Track

Эпоха: Sep 14, 2026, 13:12 UTC

1 25733U 99025D   26257.55057257  .00000245  00000-0  13787-3 0  9993
2 25733  98.6746 299.1747 0013126 282.4797  77.4911 14.18999760412698

Отслеживайте CZ-4B DEB в реальном времени с AllMySat

Download on the App Store